User: anonymous   Login
Location: Unspecified
(0.0000°N, 0.0000°E)
Time: 20:26:46
(UTC+00:00)
Language:

Milstar DFS 1 - Orbit

View from above orbital plane
View from above orbital plane
View from above satellite
View from above satellite

Ground track
Ground track

The orbit data is extracted from the following two-line orbital elements,

1 22988U 94009A   21136.31924626 -.00000187  00000-0  00000-0 0  9994
2 22988  14.7020  47.3748 0003131  25.5458 186.2461  1.00271057 14337
Epoch (UTC): 16 May 2021 07:39:42
Eccentricity: 0.0003131
inclination: 14.7020°
perigee height: 35773 km
apogee height: 35799 km
right ascension of ascending node: 47.3748°
argument of perigee: 25.5458°
revolutions per day: 1.00271057
mean anomaly at epoch: 186.2461°
orbit number at epoch: 1433

The dashed part of the orbit path shows where the satellite is in the earth's shadow,  

DLR